Change the Weather History Date:

Thursday, February 16, 2012

  Actual Average (KLBX) Record (KLBX)
Temperature  
Mean Temperature 65 °F -  
Max Temperature 70 °F 65 °F 78 °F (2005)
Min Temperature 60 °F 48 °F 28 °F (2007)
Growing Degree Days 15 (Base 50)    
Moisture  
Dew Point 62 °F    
Average Humidity 93    
Maximum Humidity 100    
Minimum Humidity 73    
Precipitation  
Precipitation 0.01 in - - ()
Sea Level Pressure  
Sea Level Pressure 30.08 in    
Wind  
Wind Speed 4 mph (NNE)    
Max Wind Speed 12 mph    
Max Gust Speed -    
Visibility 6 miles    
Events Fog    
Averages and records for this station are not official NWS values.
T = Trace of Precipitation, MM = Missing Value Source: NWS Daily Summary

Daily Weather History Graph

Daily Weather History Graph

Search for Another Location

Airport or City:

Trip Planner

Search our weather history database for the weather conditions in past years. The results will help you decide how hot, cold, wet, or windy it might be!

Date:

Astronomy

Feb. 16, 2012 Rise Set
Actual Time 7:01 AM CST 6:13 PM CST
Civil Twilight 6:37 AM CST 6:38 PM CST
Nautical Twilight 6:09 AM CST 7:05 PM CST
Astronomical Twilight 5:42 AM CST 7:33 PM CST
Moon 2:43 AM CST (2/16) 1:21 PM CST (2/16)
Length of Visible Light 12h 00m
Length of Day
11h 12m
Waning Crescent, 28% of the Moon is Illuminated
Feb 16
Waning Crescent
Feb 21
New
Feb 29
First Quarter
Mar 8
Full
Mar 14
Last Quarter

Hourly Weather History & Observations

Time (CST) Temp. Dew Point Humidity Pressure Visibility Wind Dir Wind Speed Gust Speed Precip Events Conditions
12:15 AM 66.9 °F 66.9 °F 100% 30.03 in 0.2 mi Calm Calm - N/A Fog Fog
12:35 AM 66.2 °F 66.2 °F 100% 30.03 in 0.2 mi Calm Calm - N/A Fog Fog
12:55 AM 65.5 °F 65.5 °F 100% 30.03 in 0.2 mi Calm Calm - N/A Fog Fog
1:15 AM 64.4 °F 64.4 °F 100% 30.03 in 0.2 mi Calm Calm - N/A Fog Fog
1:35 AM 63.5 °F 63.5 °F 100% 30.03 in 0.2 mi Calm Calm - N/A Fog Fog
1:55 AM 62.6 °F 62.6 °F 100% 30.04 in 0.2 mi Calm Calm - N/A Fog Fog
2:15 AM 62.1 °F 62.1 °F 100% 30.03 in 0.2 mi Calm Calm - N/A Fog Fog
2:35 AM 61.9 °F 61.9 °F 100% 30.03 in 0.2 mi NW 3.5 mph - N/A Fog Fog
2:55 AM 61.9 °F 61.9 °F 100% 30.03 in 0.2 mi NE 4.6 mph - N/A Fog Fog
3:15 AM 62.6 °F 62.6 °F 100% 30.03 in 1.0 mi NNE 5.8 mph - N/A   Mist
3:35 AM 63.9 °F 63.9 °F 100% 30.03 in 2.5 mi NNE 4.6 mph - N/A   Clear
3:55 AM 62.6 °F 62.6 °F 100% 30.03 in 4.0 mi NNE 3.5 mph - N/A   Clear
4:15 AM 62.2 °F 62.2 °F 100% 30.03 in 2.5 mi NE 3.5 mph - N/A   Clear
4:35 AM 61.5 °F 61.5 °F 100% 30.03 in 2.0 mi NNE 4.6 mph - N/A   Clear
4:55 AM 62.2 °F 62.2 °F 100% 30.04 in 5.0 mi NNE 4.6 mph - N/A   Clear
5:15 AM 62.4 °F 62.4 °F 100% 30.04 in 5.0 mi NNE 4.6 mph - N/A   Clear
5:35 AM 61.9 °F 61.9 °F 100% 30.05 in 4.0 mi NE 3.5 mph - N/A   Clear
5:55 AM 61.2 °F 61.2 °F 100% 30.05 in 3.0 mi Calm Calm - N/A   Clear
6:15 AM 61.0 °F 61.0 °F 100% 30.07 in 0.8 mi NNE 5.8 mph - N/A   Mist
6:35 AM 61.9 °F 61.9 °F 100% 30.08 in 0.8 mi North 9.2 mph - N/A   Overcast
6:55 AM 62.1 °F 62.1 °F 100% 30.08 in 0.5 mi NNE 8.1 mph - 0.01 in Fog Fog
7:15 AM 62.1 °F 62.1 °F 100% 30.08 in 0.8 mi NNE 5.8 mph - N/A   Overcast
7:35 AM 62.2 °F 62.2 °F 100% 30.10 in 0.8 mi NNE 4.6 mph - N/A   Overcast
7:55 AM 62.2 °F 62.2 °F 100% 30.11 in 2.0 mi North 4.6 mph - N/A   Overcast
8:15 AM 62.2 °F 62.2 °F 100% 30.11 in 3.0 mi NNE 5.8 mph - N/A   Scattered Clouds
8:35 AM 62.2 °F 62.2 °F 100% 30.11 in 4.0 mi NNE 4.6 mph - N/A   Scattered Clouds
8:55 AM 62.2 °F 62.2 °F 100% 30.11 in 5.0 mi NNE 5.8 mph - N/A   Scattered Clouds
9:15 AM 62.4 °F 62.4 °F 100% 30.13 in 7.0 mi NNE 4.6 mph - N/A   Scattered Clouds
9:35 AM 62.4 °F 62.4 °F 100% 30.18 in 7.0 mi West 6.9 mph - N/A   Mostly Cloudy
9:55 AM 62.4 °F 62.4 °F 100% 30.18 in 7.0 mi NNW 8.1 mph - N/A   Scattered Clouds
10:15 AM 61.9 °F 61.9 °F 100% 30.19 in 10.0 mi NW 4.6 mph - N/A   Scattered Clouds
10:35 AM 61.7 °F 61.7 °F 100% 30.16 in 10.0 mi NNE 8.1 mph - N/A   Scattered Clouds
10:55 AM 61.2 °F 61.2 °F 100% 30.15 in 10.0 mi NNE 9.2 mph - N/A   Mostly Cloudy
11:15 AM 60.6 °F 60.6 °F 100% 30.14 in 10.0 mi North 9.2 mph - N/A   Scattered Clouds
11:35 AM 61.7 °F 61.0 °F 97% 30.15 in 10.0 mi North 8.1 mph - N/A   Scattered Clouds
11:55 AM 62.6 °F 59.9 °F 91% 30.14 in 10.0 mi North 10.4 mph - N/A   Mostly Cloudy
12:15 PM 63.5 °F 60.1 °F 89% 30.14 in 10.0 mi North 10.4 mph - N/A   Scattered Clouds
12:35 PM 64.4 °F 60.1 °F 86% 30.12 in 10.0 mi NNE 9.2 mph - N/A   Clear
12:55 PM 64.6 °F 60.4 °F 86% 30.11 in 10.0 mi NNE 8.1 mph - N/A   Clear
1:15 PM 65.7 °F 61.2 °F 85% 30.10 in 10.0 mi NE 10.4 mph - N/A   Clear
1:35 PM 66.6 °F 61.7 °F 84% 30.08 in 10.0 mi NNE 9.2 mph - N/A   Clear
1:55 PM 67.3 °F 62.2 °F 84% 30.07 in 10.0 mi NE 9.2 mph - N/A   Clear
2:15 PM 68.0 °F 63.0 °F 84% 30.06 in 10.0 mi NE 10.4 mph - N/A   Clear
2:35 PM 68.0 °F 62.6 °F 83% 30.06 in 10.0 mi NE 6.9 mph - N/A   Clear
3:15 PM 70.0 °F 63.7 °F 80% 30.07 in 10.0 mi ENE 6.9 mph - N/A   Clear
3:35 PM 70.5 °F 62.1 °F 74% 30.06 in 10.0 mi ENE 11.5 mph - N/A   Clear
3:55 PM 70.5 °F 61.3 °F 73% 30.06 in 10.0 mi ENE 9.2 mph - N/A   Clear
4:15 PM 70.2 °F 61.2 °F 73% 30.06 in 10.0 mi East 9.2 mph - N/A   Clear
4:35 PM 69.4 °F 60.4 °F 73% 30.05 in 10.0 mi ENE 9.2 mph - N/A   Clear
4:55 PM 68.7 °F 60.3 °F 74% 30.05 in 10.0 mi NE 11.5 mph - N/A   Clear
5:15 PM 68.0 °F 59.7 °F 75% 30.04 in 10.0 mi ENE 9.2 mph - N/A   Clear
5:35 PM 67.1 °F 59.5 °F 77% 30.04 in 10.0 mi ENE 9.2 mph - N/A   Clear
5:55 PM 66.6 °F 58.8 °F 76% 30.05 in 10.0 mi ENE 9.2 mph - N/A   Clear
6:15 PM 66.0 °F 59.0 °F 78% 30.06 in 10.0 mi ENE 6.9 mph - N/A   Clear
6:35 PM 65.1 °F 59.5 °F 82% 30.06 in 10.0 mi NE 5.8 mph - N/A   Clear
6:55 PM 64.6 °F 59.9 °F 85% 30.07 in 10.0 mi NE 6.9 mph - N/A   Clear
7:15 PM 64.0 °F 60.1 °F 87% 30.07 in 10.0 mi ENE 6.9 mph - N/A   Clear
7:35 PM 63.9 °F 61.2 °F 91% 30.09 in 10.0 mi ENE 5.8 mph - N/A   Clear
7:55 PM 63.7 °F 62.2 °F 95% 30.09 in 10.0 mi ENE 8.1 mph - N/A   Scattered Clouds
8:15 PM 63.7 °F 62.6 °F 96% 30.08 in 7.0 mi ENE 9.2 mph - N/A   Overcast
8:35 PM 63.5 °F 62.6 °F 97% 30.06 in 7.0 mi ENE 10.4 mph - N/A   Scattered Clouds
8:55 PM 63.1 °F 62.2 °F 97% 30.04 in 7.0 mi ENE 15.0 mph - N/A   Clear
9:15 PM 63.1 °F 61.9 °F 96% 30.05 in 10.0 mi NE 8.1 mph - N/A   Clear
9:35 PM 63.1 °F 61.7 °F 95% 30.08 in 10.0 mi ENE 4.6 mph - N/A   Mostly Cloudy
9:55 PM 63.3 °F 61.9 °F 95% 30.11 in 10.0 mi Calm Calm - N/A   Overcast
10:15 PM 63.5 °F 62.1 °F 95% 30.10 in 10.0 mi East 3.5 mph - N/A   Overcast
10:35 PM 63.5 °F 61.9 °F 94% 30.08 in 7.0 mi ENE 4.6 mph - N/A   Mostly Cloudy
10:55 PM 62.6 °F 61.7 °F 97% 30.08 in 7.0 mi ENE 3.5 mph - N/A   Scattered Clouds
11:15 PM 62.2 °F 61.7 °F 98% 30.09 in 7.0 mi North 5.8 mph - N/A   Scattered Clouds
11:35 PM 62.8 °F 62.1 °F 97% 30.07 in 7.0 mi NE 8.1 mph - N/A   Overcast
11:55 PM 62.8 °F 62.1 °F 97% 30.07 in 5.0 mi NE 6.9 mph - N/A   Mostly Cloudy